Powrót do katalogu

CZ-6A DEB

AktywnySSO
NORAD 54624·DEBRIS·🇨🇳 China

Wystrzelony Nov 11, 2022 z Taiyuan Satellite Launch Center

Loading…

Następne Przeloty (najbliższe 24 godziny)

TLE

ŚwieżeSource: Space-Track

Epoka: Sep 14, 2026, 21:15 UTC

1 54624U 22151PA  26257.88544835 -.00000078  00000-0 -24489-4 0  9997
2 54624  98.9492 230.0537 0123423 202.4401 157.1334 13.94913124194243

Śledź CZ-6A DEB w czasie rzeczywistym z AllMySat

Download on the App Store